Glens Falls, NY

8:21 AM EDT on October 20, 2019 (GMT -0400)
Bennett Memorial

Weather History for KGFL - August, 2019

Change the Weather History Date:

Thursday, August 1, 2019

  Actual Average Record
Temperature  
Mean Temperature 68 °F 69 °F  
Max Temperature 80 °F 81 °F 99 °F (1933)
Min Temperature 56 °F 57 °F 42 °F (1953)
Degree Days  
Heating Degree Days 0 1  
Month to date heating degree days 0 1  
Since 1 June heating degree days 70 112  
Since 1 July heating degree days 0 22  
Cooling Degree Days 3 4  
Month to date cooling degree days 3 4  
Year to date cooling degree days 299 224  
Since 1 June cooling degree days 290 212  
Growing Degree Days 20 (Base 50)    
Moisture  
Dew Point 59 °F    
Average Humidity 70    
Maximum Humidity 100    
Minimum Humidity 39    
Precipitation  
Precipitation 0.00 in 0.14 in 1.83 in (1898)
Month to date precipitation 0.00 0.14  
Year to date precipitation 25.94 22.27  
Sea Level Pressure  
Sea Level Pressure 30.08 in    
Wind  
Wind Speed 3 mph (ENE)    
Max Wind Speed 13 mph    
Max Gust Speed 18 mph    
Visibility 5 miles    
Events Fog    
T = Trace of Precipitation, MM = Missing Value Source: NWS Daily Summary

Daily Weather History Graph

Daily Weather History Graph

Search for Another Location

Airport or City:

Astronomy

Aug. 01, 2019 Rise Set
Actual Time 5:44 AM EDT 8:16 PM EDT
Civil Twilight 5:11 AM EDT 8:49 PM EDT
Nautical Twilight 4:30 AM EDT 9:29 PM EDT
Astronomical Twilight 3:44 AM EDT 10:15 PM EDT
Moon 6:04 AM EDT (8/1) 9:01 PM EDT (8/1)
Length of Visible Light 15h 37m
Length of Day
14h 32m
New Moon, 0% of the Moon is Illuminated
Aug 1
New Moon
Aug 7
First Quarter
Aug 15
Full
Aug 23
Last Quarter
Aug 30
New

Hourly Weather History & Observations

Time (EDT) Temp. Heat Index Dew Point Humidity Pressure Visibility Wind Dir Wind Speed Gust Speed Precip Events Conditions
12:22 AM 63.0 °F - 62.1 °F 97% 30.04 in 2.0 mi Calm Calm - N/A   Mostly Cloudy
12:29 AM 63.0 °F - 62.1 °F 97% 30.04 in 4.0 mi Calm Calm - N/A   Mostly Cloudy
12:31 AM 64.0 °F - 63.0 °F 96% 30.04 in 1.2 mi Calm Calm - N/A   Mostly Cloudy
12:33 AM 64.0 °F - 63.0 °F 96% 30.04 in 0.8 mi Calm Calm - N/A   Mist
12:49 AM 62.6 °F - 60.8 °F 94% 30.04 in 2.5 mi Calm Calm - N/A   Mostly Cloudy
12:51 AM 62.6 °F - 60.8 °F 94% 30.05 in 4.0 mi Calm Calm - N/A   Mostly Cloudy
12:53 AM 61.0 °F - 61.0 °F 100% 30.04 in 4.0 mi Calm Calm - N/A   Mostly Cloudy
12:55 AM 61.0 °F - 61.0 °F 100% 30.05 in 1.5 mi Calm Calm - N/A   Mostly Cloudy
1:04 AM 62.1 °F - 61.0 °F 96% 30.05 in 0.5 mi Calm Calm - N/A Fog Fog
1:29 AM 62.1 °F - 61.0 °F 96% 30.05 in 0.2 mi Calm Calm - N/A Fog Fog
1:53 AM 62.1 °F - 61.0 °F 96% 30.05 in 0.2 mi West 3.5 mph - N/A Fog Fog
2:53 AM 61.0 °F - 60.1 °F 97% 30.06 in 0.2 mi Calm Calm - N/A Fog Fog
3:08 AM 60.1 °F - 60.1 °F 100% 30.06 in 0.5 mi Calm Calm - N/A Fog Fog
3:31 AM 59.0 °F - 59.0 °F 100% 30.07 in 0.2 mi Calm Calm - N/A Fog Fog
3:44 AM 59.0 °F - 57.9 °F 96% 30.07 in 0.5 mi Calm Calm - N/A Fog Fog
3:49 AM 59.0 °F - 59.0 °F 100% 30.07 in 1.2 mi Calm Calm - N/A   Partly Cloudy
3:53 AM 59.0 °F - 57.9 °F 96% 30.06 in 7.0 mi Calm Calm - N/A   Partly Cloudy
4:07 AM 59.0 °F - 59.0 °F 100% 30.07 in 2.5 mi Calm Calm - N/A   Partly Cloudy
4:21 AM 59.0 °F - 59.0 °F 100% 30.07 in 1.5 mi Calm Calm - N/A   Partly Cloudy
4:26 AM 60.1 °F - 59.0 °F 96% 30.07 in 4.0 mi North 3.5 mph - N/A   Scattered Clouds
4:53 AM 61.0 °F - 60.1 °F 97% 30.08 in 10.0 mi Calm Calm - N/A   Mostly Cloudy
5:09 AM 60.1 °F - 59.0 °F 96% 30.08 in 10.0 mi Calm Calm - N/A   Overcast
5:53 AM 60.1 °F - 59.0 °F 96% 30.09 in 10.0 mi Calm Calm - N/A   Mostly Cloudy
6:32 AM 61.0 °F - 60.1 °F 97% 30.10 in 9.0 mi ENE 4.6 mph - N/A   Scattered Clouds
6:53 AM 61.0 °F - 60.1 °F 97% 30.10 in 1.2 mi Calm Calm - N/A   Scattered Clouds
6:57 AM 61.0 °F - 60.1 °F 97% 30.10 in 0.8 mi East 3.5 mph - N/A   Mist
7:07 AM 61.0 °F - 60.1 °F 97% 30.10 in 0.2 mi Calm Calm - N/A Fog Fog
7:32 AM 62.1 °F - 61.0 °F 96% 30.11 in 0.5 mi ENE 3.5 mph - N/A Fog Fog
7:44 AM 62.1 °F - 61.0 °F 96% 30.11 in 2.0 mi ENE 3.5 mph - N/A   Overcast
7:53 AM 62.1 °F - 62.1 °F 100% 30.12 in 3.0 mi Calm Calm - N/A   Mostly Cloudy
8:09 AM 63.0 °F - 62.1 °F 97% 30.12 in 10.0 mi Calm Calm - N/A   Partly Cloudy
8:53 AM 64.9 °F - 63.0 °F 93% 30.13 in 10.0 mi NE 4.6 mph - N/A   Clear
9:53 AM 69.1 °F - 62.1 °F 78% 30.13 in 10.0 mi East 6.9 mph - N/A   Clear
10:53 AM 73.0 °F - 61.0 °F 66% 30.13 in 10.0 mi East 5.8 mph - N/A   Clear
11:53 AM 75.0 °F - 59.0 °F 57% 30.12 in 10.0 mi East 4.6 mph - N/A   Clear
12:53 PM 78.1 °F - 57.0 °F 48% 30.12 in 10.0 mi North - - N/A   Clear
1:53 PM 78.1 °F - 53.1 °F 42% 30.11 in 10.0 mi East 6.9 mph - N/A   Clear
2:53 PM 79.0 °F - 53.1 °F 40% 30.11 in 10.0 mi North - - N/A   Clear
3:53 PM 80.1 °F 80.0 °F 54.0 °F 40% 30.09 in 10.0 mi SE 6.9 mph - N/A   Clear
4:53 PM 80.1 °F 79.9 °F 53.1 °F 39% 30.09 in 10.0 mi ESE 5.8 mph - N/A   Clear
5:53 PM 79.0 °F - 53.1 °F 40% 30.08 in 10.0 mi East 6.9 mph - N/A   Clear
6:53 PM 78.1 °F - 53.1 °F 42% 30.08 in 10.0 mi NE 8.1 mph - N/A   Clear
7:53 PM 73.9 °F - 55.9 °F 53% 30.09 in 10.0 mi NNE 4.6 mph - N/A   Clear
8:53 PM 64.9 °F - 57.9 °F 78% 30.10 in 10.0 mi Calm Calm - N/A   Clear
9:53 PM 62.1 °F - 57.0 °F 84% 30.12 in 10.0 mi Calm Calm - N/A   Clear
10:53 PM 59.0 °F - 57.0 °F 93% 30.13 in 10.0 mi Calm Calm - N/A   Clear
11:53 PM 57.0 °F - 55.9 °F 96% 30.14 in 10.0 mi Calm Calm - N/A   Clear